Weather History for KALI - January, 2014

Change the Weather History Date:

Friday, January 31, 2014

  Actual Average Record
Temperature  
Mean Temperature 68 °F -  
Max Temperature 82 °F 67 °F 82 °F (2014)
Min Temperature 55 °F 47 °F 37 °F (2009)
Cooling Degree Days 4    
Growing Degree Days 18 (Base 50)    
Moisture  
Dew Point 57 °F    
Average Humidity 82    
Maximum Humidity 100    
Minimum Humidity 44    
Precipitation  
Precipitation 0.00 in - - ()
Sea Level Pressure  
Sea Level Pressure 29.88 in    
Wind  
Wind Speed 12 mph (South)    
Max Wind Speed 21 mph    
Max Gust Speed 29 mph    
Visibility 8 miles    
Events Fog    
Averages and records for this station are not official NWS values.
T = Trace of Precipitation, MM = Missing Value Source: NWS Daily Summary

Daily Weather History Graph

Daily Weather History Graph

Search for Another Location

Airport or City:

Trip Planner

Search our weather history database for the weather conditions in past years. The results will help you decide how hot, cold, wet, or windy it might be!

Date:

Astronomy

Jan. 31, 2014 Rise Set
Actual Time 7:19 AM CST 6:12 PM CST
Civil Twilight 6:54 AM CST 6:36 PM CST
Nautical Twilight 6:26 AM CST 7:04 PM CST
Astronomical Twilight 5:59 AM CST 7:32 PM CST
Moon 7:39 AM CST (1/31) 7:26 PM CST (1/31)
Length of Visible Light 11h 41m
Length of Day
10h 52m
New Moon, 1% of the Moon is Illuminated
Jan 31
New Moon
Feb 6
First Quarter
Feb 14
Full
Feb 22
Last Quarter
Mar 1
New

Hourly Weather History & Observations

Time (CST) Temp. Heat Index Dew Point Humidity Pressure Visibility Wind Dir Wind Speed Gust Speed Precip Events Conditions
12:08 AM 55.4 °F - 53.6 °F 94% 29.93 in 10.0 mi South 8.1 mph - N/A   Mostly Cloudy
12:15 AM 55.4 °F - 53.6 °F 94% 29.93 in 10.0 mi South 8.1 mph - N/A   Mostly Cloudy
12:53 AM 57.0 °F - 55.0 °F 93% 29.92 in 10.0 mi South 9.2 mph - N/A   Overcast
1:53 AM 57.9 °F - 55.9 °F 93% 29.92 in 10.0 mi South 16.1 mph 27.6 mph N/A   Overcast
2:53 AM 59.0 °F - 55.9 °F 90% 29.90 in 10.0 mi South 11.5 mph 21.9 mph N/A   Overcast
3:53 AM 59.0 °F - 55.9 °F 90% 29.89 in 10.0 mi South 16.1 mph 21.9 mph N/A   Overcast
4:53 AM 57.0 °F - 55.9 °F 96% 29.90 in 10.0 mi South 15.0 mph - N/A   Overcast
5:25 AM 55.4 °F - 55.4 °F 100% 29.89 in 7.0 mi South 9.2 mph - N/A   Overcast
5:53 AM 57.0 °F - 55.0 °F 93% 29.89 in 9.0 mi South 10.4 mph - N/A   Overcast
6:53 AM 55.9 °F - 55.0 °F 97% 29.91 in 7.0 mi South 9.2 mph - N/A   Overcast
7:20 AM 55.4 °F - 55.4 °F 100% 29.91 in 2.5 mi South 9.2 mph - N/A   Overcast
7:53 AM 55.0 °F - 55.0 °F 100% 29.91 in 2.5 mi South 12.7 mph - N/A   Overcast
8:02 AM 55.4 °F - 55.4 °F 100% 29.91 in 1.0 mi South 10.4 mph - N/A   Overcast
8:21 AM 55.4 °F - 55.4 °F 100% 29.92 in 0.5 mi South 10.4 mph - N/A Fog Fog
8:32 AM 55.4 °F - 55.4 °F 100% 29.92 in 0.8 mi South 10.4 mph - N/A   Overcast
8:51 AM 57.2 °F - 55.4 °F 94% 29.92 in 2.0 mi South 11.5 mph - N/A   Overcast
8:52 AM 57.0 °F - 55.9 °F 96% 29.92 in 2.0 mi South 13.8 mph - N/A   Overcast
8:59 AM 57.2 °F - 55.4 °F 94% 29.92 in 7.0 mi South 11.5 mph - N/A   Overcast
9:23 AM 62.6 °F - 57.2 °F 82% 29.93 in 10.0 mi South 12.7 mph - N/A   Scattered Clouds
9:53 AM 66.0 °F - 57.9 °F 75% 29.94 in 10.0 mi SSW 18.4 mph 25.3 mph N/A   Clear
10:53 AM 72.0 °F - 59.0 °F 64% 29.95 in 10.0 mi South 15.0 mph 25.3 mph N/A   Clear
11:53 AM 77.0 °F - 59.0 °F 54% 29.92 in 10.0 mi South 18.4 mph 27.6 mph N/A   Clear
12:53 PM 79.0 °F - 57.0 °F 47% 29.87 in 10.0 mi SSE 20.7 mph 28.8 mph N/A   Clear
1:53 PM 81.0 °F 81.0 °F 57.0 °F 44% 29.84 in 10.0 mi South 18.4 mph 26.5 mph N/A   Clear
2:53 PM 82.0 °F 82.0 °F 57.9 °F 44% 29.82 in 10.0 mi South 10.4 mph 23.0 mph N/A   Clear
3:53 PM 82.0 °F 82.0 °F 57.9 °F 44% 29.80 in 10.0 mi South 16.1 mph 20.7 mph N/A   Clear
4:53 PM 80.1 °F 80.4 °F 57.0 °F 45% 29.79 in 10.0 mi SSE 15.0 mph 21.9 mph N/A   Clear
5:53 PM 75.0 °F - 61.0 °F 62% 29.79 in 10.0 mi SE 16.1 mph - N/A   Clear
6:53 PM 69.1 °F - 62.1 °F 78% 29.81 in 10.0 mi SE 13.8 mph - N/A   Clear
7:53 PM 66.9 °F - 62.1 °F 84% 29.83 in 10.0 mi SSE 15.0 mph 21.9 mph N/A   Clear
8:53 PM 64.9 °F - 61.0 °F 87% 29.84 in 10.0 mi SSE 11.5 mph - N/A   Clear
9:39 PM 66.2 °F - 62.6 °F 88% 29.84 in 10.0 mi SSE 13.8 mph - N/A   Mostly Cloudy
9:53 PM 66.0 °F - 62.1 °F 87% 29.84 in 10.0 mi SSE 16.1 mph - N/A   Overcast
10:53 PM 66.9 °F - 63.0 °F 87% 29.83 in 10.0 mi SSE 13.8 mph 20.7 mph N/A   Overcast
11:53 PM 66.9 °F - 63.0 °F 87% 29.83 in 10.0 mi SSE 12.7 mph 18.4 mph N/A   Overcast